Regional Weather Roundup
Issued by NWS

Home | Current Version | Previous Version | Graphics & Text | Print | Product List | Glossary On
Versions: 1 2 3 4 5 6 7 8 9 10 11 12 13 14 15 16 17 18 19 20 21 22 23 24 25 26 27 28 29 30 31 32 33 34 35 36 37 38 39 40 41 42 43 44 45 46 47 48 49 50
342
ASUS43 KDMX 280808
RWRIA

WEATHER ROUNDUP FOR IOWA
NATIONAL WEATHER SERVICE DES MOINES IA
300 AM CDT THU JUL 28 2016

NOTE: "FAIR" INDICATES FEW OR NO CLOUDS BELOW 12,000 FEET WITH NO
SIGNIFICANT WEATHER AND/OR OBSTRUCTIONS TO VISIBILITY.

* - THESE STATIONS ARE NOT NWS STATIONS...THUS NOT UNDER NWS
QUALITY CONTROL.  THEY ALSO DO NOT REPORT WEATHER SUCH
AS PRECIPITATION OR FOG.

IAZ001>003-012>014-020>022-031>034-043>046-280900-
   NORTHWEST IOWA

CITY           SKY/WX    TMP DP  RH WIND       PRES   REMARKS
CARROLL *      PTCLDY    66  66 100 N8        29.98S
CHEROKEE *     CLEAR     65  65  99 N3        30.01R
DENISON *      PTCLDY    68  66  94 NE6       29.98S
LE MARS *      CLEAR     66  63  88 CALM      30.03F
SHELDON *      CLEAR     64  61  88 N6        30.01S
SIOUX CITY     CLOUDY    73  63  70 N8        30.01S
SPENCER        CLEAR     65  62  90 N9        30.01F
STORM LAKE *   CLEAR     66  64  94 N5        30.01R
$$

IAZ055>058-069>071-079>083-090>094-280900-
   SOUTHWEST IOWA

CITY           SKY/WX    TMP DP  RH WIND       PRES   REMARKS
ATLANTIC *     CLOUDY    68  68 100 N7        29.96F
CLARINDA *       N/A     68  68 100 MISG      29.98S
COUNCIL BLFS *   N/A     70  70 100 N6        29.99R
CRESTON *      CLEAR     66  66 100 NW6       29.97F
HARLAN  *      CLEAR     68  68 100 N5        30.01F
LAMONI         CLEAR     69  68  96 CALM      29.95S
RED OAK *      MOCLDY    68  68 100 CALM      29.97S
SHENANDOAH *   FOG       68  68 100 CALM      29.97S VSB 1/4
$$

IAZ047>049-059>061-072>074-084-280900-
   CENTRAL IOWA

CITY           SKY/WX    TMP DP  RH WIND       PRES   REMARKS
AMES           CLEAR     70  69  97 N8        29.94S
ANKENY *         N/A    N/A N/A N/A MISG        N/A
BOONE *        CLEAR     68  66  94 N9        29.94F
CHARITON *       N/A    N/A N/A N/A MISG        N/A
DES MOINES     PTCLDY    72  69  90 NW5       29.93S
GRINNELL*      CLEAR     66  64  93 CALM      29.93F
KNOXVILLE *    CLEAR     68  68 100 CALM      29.92S
MARSHALLTOWN   PTCLDY    66  66 100 N3        29.93S
NEWTON *       PTCLDY    68  68 100 W5        29.92F
PELLA *        CLEAR     68  67  95 CALM      29.93F
PERRY *          N/A     69  68  96 N5        29.96S
$$

IAZ004>006-015-016-023>025-035-036-280900-
   NORTH CENTRAL IOWA

CITY           SKY/WX    TMP DP  RH WIND       PRES   REMARKS
ALGONA *       CLEAR     66  64  94 N5        29.99S
ESTHERVILLE    CLEAR     63  63 100 NW6       30.01S
FORT DODGE *   CLEAR     66  64  94 CALM      29.99R
MASON CITY     CLEAR     65  64  97 N6        29.98F
FOREST CITY *    N/A     64  64 100 NW8       29.98F
IOWA FALLS *     N/A     68  65  92 N8        29.96S
$$

IAZ007>011-017>019-026>030-037>042-050>054-066-280900-
   NORTHEAST IOWA

CITY           SKY/WX    TMP DP  RH WIND       PRES   REMARKS
CEDAR RAPIDS   CLEAR     66  66 100 CALM      29.91F
CHARLES CITY * CLOUDY    66  66 100 NW6       29.95S FOG
CLINTON *      CLEAR     69  68  96 CALM      29.90F
DECORAH *      MOCLDY    68  68 100 CALM      29.91F
DUBUQUE        CLEAR     67  65  93 CALM      29.92F
MONTICELLO *   FOG       66  64  94 CALM      29.91F VSB 1
OELWEIN *      PTCLDY    68  66  94 NW3       29.93F
WATERLOO       CLEAR     68  65  90 NW8       29.91F
$$

IAZ064-065-067-068-078-280900-
   EAST CENTRAL IOWA

CITY           SKY/WX    TMP DP  RH WIND       PRES   REMARKS
DAVENPORT      CLEAR     68  66  93 CALM      29.90F
IOWA CITY      CLEAR     69  67  93 W3        29.92F
MT. PLEASANT * CLEAR     71  71 100 CALM      29.92S
MUSCATINE *    CLEAR     70  68  94 CALM      29.90S
QUAD CITIES    PTCLDY    72  68  87 CALM      29.89F
$$

IAZ062-063-075>077-085>089-095>099-280900-
   SOUTHEAST IOWA

CITY           SKY/WX    TMP DP  RH WIND       PRES   REMARKS
BURLINGTON     MOCLDY    71  69  93 SE6       29.90F
FAIRFIELD *    CLEAR     68  66  94 CALM      29.92S
KEOKUK *       CLOUDY    73  70  88 W5        29.90F
OSKALOOSA *      N/A     67  66  97 CALM      29.92F
CENTERVILLE *    N/A     66  66 100 CALM      29.95S
OTTUMWA        CLEAR     68  66  93 CALM      29.91S
WASHINGTON *   CLEAR     68  66  94 NW3       29.93S
$$

ABBREVIATIONS USED IN REMARKS
   TC - TEMPERATURES IN CELSIUS
  WCI - WIND CHILL INDEX
   HX - HEAT INDEX
  VSB - VISIBILITY
$$





USA.gov is the U.S. government's official web portal to all federal, state and local government web resources and services.